Location: D�rnast
(49.6426°N, 11.9755°E)
Time: 23:03:56
(UTC+00:00)

ISS - Pass Details

Date: 05 December 2021
Orbit: 413 x 422 km, 51.6° (Epoch: 24 January)

Event Time Altitude Azimuth Distance (km) Brightness Sun altitude
Rises 17:40:04 0° 286° (WNW) 2,384 1.2 -22.8°
Reaches altitude 10° 17:42:28 10° 270° (W) 1,513 0.1 -23.2°
Maximum altitude 17:45:09 22° 218° (SW) 983 -1.4 -23.6°
Enters shadow 17:45:58 20° 197° (SSW) 1,041 -1.6 -23.8°
